sat.trackr.live / text

‹ back to catalog

STARLINK-33640

NORAD 63378 · 2025-063R

PAYLOAD ACTIVE UNKNOWN

§ Identity

Operator
Country
US
Launch date
2025-03-26
Launch site
AFWTR
Launch vehicle
Mass (kg)
RCS (m²)

Purposes: comms

External: N2YO · Heavens-Above · Gunter

§ Orbital elements

Epoch: 2026-05-25T04:32:58.009920Z

Period
94.10 min
Inclination
53.1576°
Eccentricity
0.0000891
Mean motion
15.30218197 rev/d
Perigee alt
474.6 km
Apogee alt
475.8 km
Semi-major
6,853.3 km
B*
6.5134e-4
RAAN
57.0020°
Arg perigee
114.1406°
Mean anomaly
245.9688°
Rev number
6,647

§ Raw data

STARLINK-336401 63378U 25063R   26145.18956030  .00018992  00000+0  65134-3 0  99932 63378  53.1576  57.0020 0000891 114.1406 245.9688 15.30218197 66477

JSON: /api/v1/satellites/63378 · /tle

For live sub-satellite position, see the globe view (requires WebGL).

§ Visibility from observer

Set your observer location to see the next 7 days of passes ≥ 10°. The values pass through the URL so the page stays shareable.

No JS? Fill the form by hand. The geolocation button needs JavaScript.